Home > Weather > Scottsdale > Past weeks

Flag for USA Past Weather in Scottsdale, Arizona, USA — Yesterday and Last 2 Weeks

Now
91 °F

Sunny.


Feels Like: 91 °F
Forecast: 84 / 99 °F
Wind: 7 mph from South

Location: Scottsdale Airport

Current Time: Jul 30, 2016 at 12:05:51 PM

Latest Report: Jul 30, 2016 at 10:53 AM


Visibility: 10 mi

Pressure: 29.84 "Hg

Humidity: 37%

Dew Point: 61 °F

Location of ScottsdaleLocation

Past Weather in Scottsdale — Graph

°F

Scottsdale Temperature Yesterday

Maximum temperature yesterday: 109 °F (at 4:53 PM)
Minimum temperature yesterday: 79 °F (at 10:53 PM)
Average temperature yesterday: 96 °F

High & Low Weather Summary for the Past Weeks

 TemperatureHumidityPressure
High110 °F (Jul 22, 3:53 PM)69% (Jul 18, 4:53 AM)29.96 "Hg (Jul 18, 4:53 AM)
Low79 °F (Jul 29, 10:53 PM)11% (Jul 15, 3:53 PM)29.58 "Hg (Jul 29, 5:53 PM)
Average97 °F27%29.80 "Hg
* Reported Jul 15 10:53 AM — Jul 30 10:53 AM, Scottsdale, Weather by CustomWeather, © 2016

Note: Actual official high and low records may vary slightly from our data, if they occured in-between our weather recording intervals... More about our weather records

Advertising

Scottsdale Weather History for the Previous 24 Hours

Scroll right to see more
 ConditionsComfort  
Time TempWeatherWind HumidityBarometerVisibility
10:53 AM
Sat, Jul 30
91 °FSunny.7 mph37%29.84 "Hg10 mi
9:53 AM90 °FSunny.9 mph39%29.84 "Hg10 mi
8:53 AM88 °FSunny.6 mph43%29.85 "Hg10 mi
7:53 AM85 °FSunny.3 mph51%29.83 "Hg10 mi
6:53 AM83 °FSunny.No wind55%29.81 "Hg10 mi
5:53 AM83 °FSunny.5 mph53%29.82 "Hg10 mi
4:53 AM84 °FClear.7 mph48%29.78 "Hg10 mi
3:53 AM84 °FClear.3 mph48%29.75 "Hg10 mi
2:53 AM84 °FClear.8 mph48%29.74 "Hg10 mi
1:53 AM83 °FClear.3 mph51%29.74 "Hg10 mi
12:53 AM83 °FPassing clouds.5 mph55%29.77 "Hg10 mi
11:53 PM
Fri, Jul 29
81 °FPassing clouds.6 mph62%29.79 "Hg10 mi
10:53 PM79 °FClear.6 mph69%29.86 "Hg10 mi
9:53 PM80 °FPassing clouds.12 mph67%29.85 "Hg10 mi
8:53 PM82 °FThundershowers. Partly cloudy.13 mph60%29.79 "Hg10 mi
7:53 PM98 °FThunderstorms. Passing clouds.13 mph24%29.69 "Hg10 mi
6:53 PM108 °FSunny.6 mph16%29.61 "Hg10 mi
5:53 PM109 °FSunny.10 mph16%29.58 "Hg10 mi
4:53 PM109 °FSunny.9 mph17%29.59 "Hg10 mi
3:53 PM108 °FSunny.9 mph19%29.62 "Hg10 mi
2:53 PM106 °FSunny.8 mph21%29.65 "Hg10 mi
1:53 PM104 °FSunny.10 mph23%29.69 "Hg10 mi
12:53 PM102 °FSunny.8 mph25%29.73 "Hg10 mi
Weather by CustomWeather, © 2016

See weather overviewHow to use our weather pages